• In Colombia
  • List of Countries
  • For 7 days
  • Water Temperature
  • Weather Map
  • Weather Widgets
  • user-avatar
    Login

    Hourly Weather Pluzhine

    Today, 13 December, Friday

    Time Temperature Precipitation Wind Pressure Humidity
    00:00 +2°C° 0.2 mm 1 mps 656 mmHg 97%
    01:00 +2°C° 0 mm 1 mps 656 mmHg 97%
    02:00 +1°C° 0.2 mm 2 mps 656 mmHg 97%
    03:00 +1°C° 0.2 mm 2 mps 656 mmHg 97%
    04:00 +1°C° 0.2 mm 2 mps 655 mmHg 97%
    05:00 +2°C° 0.3 mm 1 mps 655 mmHg 97%
    06:00 +2°C° 0.3 mm 1 mps 655 mmHg 97%
    07:00 +2°C° 0.3 mm 1 mps 655 mmHg 97%
    08:00 +2°C° 0 mm 2 mps 655 mmHg 93%
    09:00 +2°C° 0 mm 2 mps 655 mmHg 89%
    10:00 +2°C° 0 mm 3 mps 655 mmHg 85%
    11:00 +2°C° 0 mm 3 mps 655 mmHg 81%
    12:00 +3°C° 0 mm 4 mps 654 mmHg 78%
    13:00 +3°C° 0 mm 4 mps 654 mmHg 75%
    14:00 +1°C° 0 mm 4 mps 653 mmHg 78%
    15:00 +2°C° 0 mm 3 mps 652 mmHg 81%
    16:00 +1°C° 0 mm 3 mps 652 mmHg 85%
    17:00 +1°C° 0.1 mm 3 mps 651 mmHg 86%
    18:00 +1°C° 0.1 mm 3 mps 650 mmHg 88%
    19:00 +1°C° 0.1 mm 3 mps 650 mmHg 89%
    20:00 +1°C° 0.4 mm 3 mps 649 mmHg 91%
    21:00 +1°C° 0.4 mm 3 mps 649 mmHg 93%
    22:00 +1°C° 0.4 mm 3 mps 648 mmHg 95%
    23:00 +1°C° 0.5 mm 3 mps 647 mmHg 95%

    Tomorrow, 14 December, Saturday

    Time Temperature Precipitation Wind Pressure Humidity
    00:00 +2°C° 0.5 mm 2 mps 647 mmHg 96%
    01:00 +2°C° 0.5 mm 2 mps 647 mmHg 96%
    02:00 +3°C° 0.6 mm 1 mps 647 mmHg 96%
    03:00 +2°C° 0.6 mm 1 mps 647 mmHg 96%
    04:00 +2°C° 0.6 mm 1 mps 647 mmHg 97%
    05:00 +2°C° 0.2 mm 1 mps 648 mmHg 97%
    06:00 +2°C° 0.2 mm 1 mps 649 mmHg 97%
    07:00 +2°C° 0.2 mm 0 mps 650 mmHg 97%
    08:00 +3°C° 0 mm 1 mps 652 mmHg 96%
    09:00 +3°C° 0 mm 1 mps 653 mmHg 96%
    10:00 +4°C° 0 mm 1 mps 654 mmHg 95%
    11:00 +4°C° 0 mm 1 mps 655 mmHg 95%
    12:00 +4°C° 0 mm 1 mps 656 mmHg 96%
    13:00 +4°C° 0 mm 1 mps 656 mmHg 96%
    14:00 +4°C° 0 mm 1 mps 657 mmHg 97%
    15:00 +4°C° 0 mm 1 mps 658 mmHg 97%
    16:00 +4°C° 0 mm 1 mps 659 mmHg 97%
    17:00 +3°C° 0 mm 1 mps 660 mmHg 97%
    18:00 +3°C° 0 mm 1 mps 661 mmHg 97%
    19:00 +3°C° 0 mm 1 mps 662 mmHg 97%
    20:00 +2°C° 0 mm 1 mps 663 mmHg 96%
    21:00 +2°C° 0 mm 1 mps 663 mmHg 96%
    22:00 +1°C° 0 mm 1 mps 664 mmHg 95%
    23:00 0°C° 0 mm 0 mps 665 mmHg 93%

    Day after tomorrow, 15 December, Sunday

    Time Temperature Precipitation Wind Pressure Humidity
    00:00 0°C° 0 mm 0 mps 665 mmHg 92%
    01:00 0°C° 0 mm 0 mps 666 mmHg 90%
    02:00 0°C° 0 mm 0 mps 666 mmHg 90%
    03:00 +1°C° 0 mm 1 mps 666 mmHg 89%
    04:00 +1°C° 0 mm 1 mps 666 mmHg 89%
    05:00 +1°C° 0 mm 1 mps 666 mmHg 86%
    06:00 +1°C° 0 mm 1 mps 666 mmHg 83%
    07:00 +1°C° 0 mm 1 mps 667 mmHg 80%
    08:00 +3°C° 0 mm 1 mps 667 mmHg 75%
    09:00 +5°C° 0 mm 1 mps 668 mmHg 71%
    10:00 +7°C° 0 mm 1 mps 669 mmHg 66%
    11:00 +8°C° 0 mm 1 mps 669 mmHg 65%
    12:00 +9°C° 0 mm 1 mps 669 mmHg 65%
    13:00 +9°C° 0 mm 1 mps 669 mmHg 64%
    14:00 +8°C° 0 mm 1 mps 669 mmHg 66%
    15:00 +7°C° 0 mm 1 mps 669 mmHg 67%
    16:00 +5°C° 0 mm 1 mps 669 mmHg 69%
    17:00 +4°C° 0 mm 2 mps 669 mmHg 70%
    18:00 +3°C° 0 mm 2 mps 669 mmHg 70%
    19:00 +3°C° 0 mm 2 mps 669 mmHg 71%
    20:00 +3°C° 0 mm 2 mps 670 mmHg 73%
    21:00 +3°C° 0 mm 2 mps 670 mmHg 76%
    22:00 +3°C° 0 mm 2 mps 670 mmHg 79%
    23:00 +2°C° 0 mm 2 mps 670 mmHg 81%

    16 December, Monday

    Time Temperature Precipitation Wind Pressure Humidity
    00:00 +2°C° 0 mm 2 mps 670 mmHg 84%
    01:00 +2°C° 0 mm 2 mps 671 mmHg 87%
    02:00 +2°C° 0 mm 2 mps 671 mmHg 88%
    03:00 +2°C° 0 mm 2 mps 671 mmHg 90%
    04:00 +2°C° 0 mm 2 mps 671 mmHg 91%
    05:00 +2°C° 0 mm 2 mps 671 mmHg 91%
    06:00 +2°C° 0 mm 2 mps 671 mmHg 92%
    07:00 +2°C° 0 mm 2 mps 671 mmHg 92%
    08:00 +3°C° 0 mm 2 mps 672 mmHg 88%
    09:00 +5°C° 0 mm 2 mps 672 mmHg 85%
    10:00 +7°C° 0 mm 1 mps 673 mmHg 81%
    11:00 +7°C° 0 mm 2 mps 673 mmHg 79%
    12:00 +8°C° 0 mm 2 mps 672 mmHg 77%
    13:00 +8°C° 0 mm 2 mps 672 mmHg 75%
    14:00 +7°C° 0 mm 2 mps 672 mmHg 81%
    15:00 +6°C° 0 mm 2 mps 672 mmHg 87%
    16:00 +5°C° 0 mm 2 mps 671 mmHg 92%
    17:00 +4°C° 0 mm 2 mps 671 mmHg 92%
    18:00 +3°C° 0 mm 2 mps 671 mmHg 92%
    19:00 +3°C° 0 mm 2 mps 671 mmHg 91%
    20:00 +3°C° 0 mm 2 mps 671 mmHg 90%
    21:00 +3°C° 0 mm 2 mps 671 mmHg 88%
    22:00 +3°C° 0 mm 2 mps 671 mmHg 87%
    23:00 +3°C° 0 mm 2 mps 671 mmHg 86%

    17 December, Tuesday

    Time Temperature Precipitation Wind Pressure Humidity
    00:00 +3°C° 0 mm 2 mps 671 mmHg 85%
    01:00 +3°C° 0 mm 2 mps 671 mmHg 83%
    02:00 +3°C° 0 mm 2 mps 671 mmHg 82%
    03:00 +3°C° 0 mm 2 mps 671 mmHg 81%
    04:00 +3°C° 0 mm 2 mps 671 mmHg 80%
    05:00 +3°C° 0 mm 2 mps 671 mmHg 79%
    06:00 +3°C° 0 mm 2 mps 671 mmHg 77%
    07:00 +3°C° 0 mm 2 mps 671 mmHg 76%
    08:00 +4°C° 0 mm 2 mps 671 mmHg 74%
    09:00 +6°C° 0 mm 2 mps 672 mmHg 72%
    10:00 +7°C° 0 mm 2 mps 673 mmHg 70%
    11:00 +8°C° 0 mm 2 mps 672 mmHg 69%
    12:00 +9°C° 0 mm 2 mps 672 mmHg 68%
    13:00 +10°C° 0 mm 2 mps 672 mmHg 68%
    14:00 +9°C° 0 mm 2 mps 672 mmHg 73%
    15:00 +8°C° 0 mm 2 mps 671 mmHg 78%
    16:00 +6°C° 0 mm 2 mps 671 mmHg 82%
    17:00 +6°C° 0 mm 2 mps 671 mmHg 81%
    18:00 +5°C° 0 mm 2 mps 671 mmHg 80%
    19:00 +5°C° 0 mm 2 mps 671 mmHg 79%
    20:00 +5°C° 0 mm 2 mps 671 mmHg 77%
    21:00 +4°C° 0 mm 2 mps 671 mmHg 75%
    22:00 +4°C° 0 mm 2 mps 671 mmHg 73%
    23:00 +4°C° 0 mm 2 mps 671 mmHg 71%

    18 December, Wednesday

    Time Temperature Precipitation Wind Pressure Humidity
    00:00 +4°C° 0 mm 2 mps 671 mmHg 69%
    01:00 +4°C° 0 mm 2 mps 671 mmHg 68%
    02:00 +4°C° 0 mm 2 mps 671 mmHg 67%
    03:00 +4°C° 0 mm 2 mps 670 mmHg 66%
    04:00 +4°C° 0 mm 2 mps 670 mmHg 65%
    05:00 +4°C° 0 mm 2 mps 670 mmHg 65%
    06:00 +4°C° 0 mm 2 mps 670 mmHg 65%
    07:00 +4°C° 0 mm 2 mps 670 mmHg 65%
    08:00 +5°C° 0 mm 2 mps 671 mmHg 66%
    09:00 +7°C° 0 mm 2 mps 671 mmHg 66%
    10:00 +9°C° 0 mm 1 mps 672 mmHg 66%
    11:00 +10°C° 0 mm 1 mps 671 mmHg 66%
    12:00 +10°C° 0 mm 2 mps 671 mmHg 65%
    13:00 +12°C° 0 mm 2 mps 671 mmHg 65%
    14:00 +9°C° 0 mm 2 mps 670 mmHg 71%
    15:00 +8°C° 0 mm 2 mps 670 mmHg 77%
    16:00 +6°C° 0 mm 2 mps 670 mmHg 84%
    17:00 +6°C° 0 mm 2 mps 669 mmHg 86%
    18:00 +5°C° 0 mm 2 mps 669 mmHg 88%
    19:00 +4°C° 0 mm 2 mps 669 mmHg 90%
    20:00 +4°C° 0 mm 2 mps 669 mmHg 91%
    21:00 +4°C° 0 mm 2 mps 669 mmHg 92%
    22:00 +4°C° 0 mm 2 mps 669 mmHg 94%
    23:00 +4°C° 0 mm 2 mps 669 mmHg 94%
    Show more